Change the Weather History Date:

Wednesday, August 21, 2013

  Actual Average Record
Temperature  
Mean Temperature 86 °F -  
Max Temperature 100 °F 95 °F - ()
Min Temperature 73 °F 64 °F - ()
Cooling Degree Days 22    
Growing Degree Days 36 (Base 50)    
Moisture  
Dew Point 17 °F    
Average Humidity 7    
Maximum Humidity 14    
Minimum Humidity 4    
Precipitation  
Precipitation 0.00 in 0.00 in - ()
Sea Level Pressure  
Sea Level Pressure 29.87 in    
Wind  
Wind Speed 7 mph ()    
Max Wind Speed 14 mph    
Max Gust Speed -    
Visibility 8.8 miles    
Events      
T = Trace of Precipitation, MM = Missing Value Source: Averaged Metar Reports

Daily Weather History Graph

Daily Weather History Graph

Search for Another Location

Airport or City:

Trip Planner

Search our weather history database for the weather conditions in past years. The results will help you decide how hot, cold, wet, or windy it might be!

Date:

Astronomy

Aug. 21, 2013 Rise Set
Actual Time 6:21 AM IRDT 7:30 PM IRDT
Civil Twilight 5:55 AM IRDT 7:55 PM IRDT
Nautical Twilight 5:25 AM IRDT 8:25 PM IRDT
Astronomical Twilight 4:54 AM IRDT 8:56 PM IRDT
Moon 7:30 PM IRDT 6:29 AM IRDT
Length of Visible Light 13h 59m
Length of Day
13h 08m
Full, 100% of the Moon is Illuminated
Aug 21
Full
Aug 28
Last Quarter
Sep 5
New
Sep 12
First Quarter
Sep 19
Full

Hourly Weather History & Observations

Time (IRDT) Temp. Dew Point Humidity Pressure Visibility Wind Dir Wind Speed Gust Speed Precip Events Conditions
12:20 AM 86.0 °F 15.8 °F 7% 29.92 in - SSE 6.9 mph - N/A   Clear
12:30 AM 86.0 °F 15.8 °F 7% 29.92 in - SSE 6.9 mph - N/A   Clear
1:20 AM 80.6 °F 17.6 °F 10% 29.92 in - SSE 6.9 mph - N/A   Clear
1:30 AM 80.6 °F 17.6 °F 10% 29.92 in - SSE 6.9 mph - N/A   Clear
2:20 AM 80.6 °F 17.6 °F 10% 29.89 in - SSE 6.9 mph - N/A   Clear
2:30 AM 80.6 °F 17.6 °F 10% 29.89 in - SSE 6.9 mph - N/A   Clear
3:20 AM 80.6 °F 19.4 °F 10% 29.89 in - SE 4.6 mph - N/A   Clear
3:30 AM 80.6 °F 19.4 °F 10% 29.89 in - SE 4.6 mph - N/A   Clear
4:20 AM 80.6 °F 17.6 °F 10% 29.89 in - SSE 4.6 mph - N/A   Clear
4:30 AM 80 °F 17 °F 4% 29.54 in 11 mi SSE 4.5 mph - -  
4:30 AM 80.6 °F 17.6 °F 10% 29.89 in - SSE 4.6 mph - N/A   Clear
5:20 AM 77.0 °F 21.2 °F 12% 29.89 in - ESE 4.6 mph - N/A   Clear
5:30 AM 77.0 °F 21.2 °F 12% 29.89 in - ESE 4.6 mph - N/A   Clear
6:20 AM 73.4 °F 21.2 °F 14% 29.92 in - SE 6.9 mph - N/A   Clear
6:30 AM 73.4 °F 21.2 °F 14% 29.92 in - SE 6.9 mph - N/A   Clear
7:00 AM 73.4 °F 21.2 °F 14% 29.92 in - East 2.3 mph - N/A   Clear
7:20 AM 73.4 °F 19.4 °F 13% 29.92 in - ESE 4.6 mph - N/A   Clear
7:30 AM 73.4 °F 19.4 °F 13% 29.92 in - ESE 4.6 mph - N/A   Clear
8:00 AM 77.0 °F 19.4 °F 12% 29.92 in - East 6.9 mph - N/A   Clear
8:20 AM 78.8 °F 19.4 °F 11% 29.92 in - East 6.9 mph - N/A   Clear
8:30 AM 78.8 °F 19.4 °F 11% 29.92 in - East 6.9 mph - N/A   Clear
9:00 AM 84.2 °F 17.6 °F 8% 29.92 in - ESE 6.9 mph - N/A   Clear
9:20 AM 87.8 °F 15.8 °F 7% 29.92 in - ESE 6.9 mph - N/A   Clear
9:30 AM 87.8 °F 15.8 °F 7% 29.92 in - ESE 6.9 mph - N/A   Clear
10:00 AM 91.4 °F 15.8 °F 6% 29.95 in - East 13.8 mph - N/A   Clear
10:20 AM 93.2 °F 15.8 °F 6% 29.95 in - East 9.2 mph - N/A   Clear
10:30 AM 92 °F 15 °F 4% 29.59 in 9 mi East 8.9 mph - -  
10:30 AM 93.2 °F 15.8 °F 6% 29.95 in - East 9.2 mph - N/A   Clear
11:00 AM 95.0 °F 14.0 °F 5% 29.92 in - SE 13.8 mph - N/A   Clear
11:20 AM 95.0 °F 14.0 °F 5% 29.92 in - South 6.9 mph - N/A   Clear
11:30 AM 95.0 °F 14.0 °F 5% 29.92 in - South 6.9 mph - N/A   Clear
12:20 PM 96.8 °F 14.0 °F 5% 29.92 in - SSE 11.5 mph - N/A   Clear
12:30 PM 96.8 °F 14.0 °F 5% 29.92 in - SSE 11.5 mph - N/A   Clear
1:20 PM 98.6 °F 17.6 °F 5% 29.89 in - East 9.2 mph - N/A   Clear
1:30 PM 98.6 °F 17.6 °F 5% 29.89 in - East 9.2 mph - N/A   Clear
2:20 PM 98.6 °F 15.8 °F 5% 29.89 in - SSE 11.5 mph - N/A   Clear
2:30 PM 98.6 °F 15.8 °F 5% 29.89 in - SSE 11.5 mph - N/A   Clear
3:20 PM 100.4 °F 17.6 °F 5% 29.86 in - South 6.9 mph - N/A   Clear
3:30 PM 100.4 °F 17.6 °F 5% 29.86 in - South 6.9 mph - N/A   Clear
4:20 PM 100.4 °F 14.0 °F 4% 29.86 in - ESE 11.5 mph - N/A   Clear
4:30 PM 100 °F 13 °F 4% 29.50 in 6 mi ESE 11.2 mph - -  
4:30 PM 100.4 °F 14.0 °F 4% 29.86 in - ESE 11.5 mph - N/A   Clear
5:20 PM 98.6 °F 14.0 °F 5% 29.83 in - ESE 9.2 mph - N/A   Clear
5:30 PM 98.6 °F 14.0 °F 5% 29.83 in - ESE 9.2 mph - N/A   Clear
6:20 PM 98.6 °F 14.0 °F 5% 29.83 in - East 6.9 mph - N/A   Clear
6:30 PM 98.6 °F 14.0 °F 5% 29.83 in - East 6.9 mph - N/A   Clear
7:00 PM 96.8 °F 14.0 °F 5% 29.83 in - SE 6.9 mph - N/A   Clear
7:20 PM 96.8 °F 14.0 °F 5% 29.83 in - SE 6.9 mph - N/A   Clear
7:30 PM 96.8 °F 14.0 °F 5% 29.83 in - SE 6.9 mph - N/A   Clear
8:00 PM 95.0 °F 17.6 °F 6% 29.86 in - SE 4.6 mph - N/A   Clear
8:20 PM 93.2 °F 17.6 °F 6% 29.86 in - SE 4.6 mph - N/A   Clear
8:30 PM 93.2 °F 17.6 °F 6% 29.86 in - SE 4.6 mph - N/A   Clear
9:00 PM 91.4 °F 17.6 °F 7% 29.86 in - SE 6.9 mph - N/A   Clear
9:20 PM 89.6 °F 17.6 °F 7% 29.89 in - SE 9.2 mph - N/A   Clear
9:30 PM 89.6 °F 17.6 °F 7% 29.89 in - SE 9.2 mph - N/A   Clear
10:00 PM 89.6 °F 17.6 °F 7% 29.89 in - SE 6.9 mph - N/A   Clear
10:20 PM 89.6 °F 17.6 °F 7% 29.89 in - SSE 6.9 mph - N/A   Clear
10:30 PM 89 °F 17 °F 4% 29.52 in 9 mi SSE 6.7 mph - -  
10:30 PM 89.6 °F 17.6 °F 7% 29.89 in - SSE 6.9 mph - N/A   Clear
11:00 PM 87.8 °F 15.8 °F 7% 29.89 in - SSE 11.5 mph - N/A   Clear
11:20 PM 87.8 °F 15.8 °F 7% 29.89 in - SSE 9.2 mph - N/A   Clear
11:30 PM 87.8 °F 15.8 °F 7% 29.89 in - SSE 9.2 mph - N/A   Clear